Location: Santa Barbara
(34.4500°N, 119.7700°W)
Time: 21:12:59
(UTC-07:00)

Cosmos 1626 Rocket - Visible Passes

Search period start: 28 May 2015 00:00
Search period end: 07 June 2015 00:00
Orbit: 605 x 631 km, 82.5° (Epoch: 28 May)

Date Brightness Start Highest point End Pass type
(mag) Time Alt. Az. Time Alt. Az. Time Alt. Az.
28 May 6.3 21:02:31 10° SW 21:05:59 22° WNW 21:09:23 10° NNW visible
29 May 6.9 21:21:42 10° W 21:23:19 11° WNW 21:24:40 10° NW visible
01 Jun 6.5 20:32:51 10° SW 20:36:18 21° WNW 20:39:41 10° NNW visible
02 Jun 7.1 20:52:08 10° W 20:53:39 11° WNW 20:54:53 10° NW visible
